User: anonymous   Login
Location: Newark
(13.5236°S, 71.9791°W)
Time: 11:37:21
(UTC+00:00)
Language:

NOAA 19 - Orbit

View from above orbital plane
View from above orbital plane
View from above satellite
View from above satellite

Ground track
Ground track

The orbit data is extracted from the following two-line orbital elements,

1 33591U 09005A   19262.91740262 +.00000042 +00000-0 +48192-4 0  9990
2 33591 099.1864 256.3236 0014875 115.2724 244.9990 14.12376785546808
Epoch (UTC): 19 September 2019 22:01:03
Eccentricity: 0.0014875
inclination: 99.1864°
perigee height: 840 km
apogee height: 862 km
right ascension of ascending node: 256.3236°
argument of perigee: 115.2724°
revolutions per day: 14.12376785
mean anomaly at epoch: 244.9990°
orbit number at epoch: 54680

The dashed part of the orbit path shows where the satellite is in the earth's shadow,  

DLR